GOMX 3

Last updated on Oct. 18, 2016, 5:18 p.m. UTC

1 40949U 98067HA  16292.18357804  .08527750  12374-4  77882-3 0  9992
2 40949  51.6055 106.7696 0006699 286.1344  73.8944 16.38002265 59645

Satellite is not in orbit.